When you browse on this site, cookies collect data to enhance your experience and personalize the content and advertising you see.
Visit our Privacy Policy to learn more. By continuing to use the site, you agree to this use of cookies and data.

Meteo pe oră la Belopole

Astăzi, 7 Iulie, Marţi

Timp Temperatura Precipitaţii Vânt Presiune Umiditate
00:00 +21°C° 0 mm 2 m/s 742 mmHg 92%
01:00 +21°C° 0 mm 2 m/s 742 mmHg 93%
02:00 +21°C° 0 mm 2 m/s 742 mmHg 94%
03:00 +21°C° 0 mm 2 m/s 741 mmHg 94%
04:00 +21°C° 0 mm 2 m/s 741 mmHg 94%
05:00 +22°C° 0 mm 1 m/s 741 mmHg 93%
06:00 +24°C° 0 mm 1 m/s 741 mmHg 87%
07:00 +25°C° 0 mm 1 m/s 741 mmHg 81%
08:00 +27°C° 0 mm 1 m/s 741 mmHg 75%
09:00 +28°C° 0 mm 2 m/s 740 mmHg 70%
10:00 +30°C° 0 mm 2 m/s 740 mmHg 65%
11:00 +31°C° 0 mm 2 m/s 740 mmHg 61%
12:00 +32°C° 0 mm 2 m/s 740 mmHg 58%
13:00 +32°C° 0 mm 2 m/s 739 mmHg 55%
14:00 +33°C° 0 mm 1 m/s 739 mmHg 52%
15:00 +33°C° 0.1 mm 1 m/s 739 mmHg 56%
16:00 +33°C° 0.1 mm 1 m/s 739 mmHg 60%
17:00 +33°C° 0.1 mm 1 m/s 738 mmHg 63%
18:00 +30°C° 0.3 mm 2 m/s 738 mmHg 70%
19:00 +27°C° 0.3 mm 2 m/s 738 mmHg 77%
20:00 +24°C° 0.3 mm 3 m/s 738 mmHg 84%
21:00 +22°C° 1.4 mm 4 m/s 738 mmHg 87%
22:00 +20°C° 1.4 mm 5 m/s 738 mmHg 90%
23:00 +19°C° 1.4 mm 6 m/s 739 mmHg 93%

Mâine, 8 Iulie, Miercuri

Timp Temperatura Precipitaţii Vânt Presiune Umiditate
00:00 +19°C° 0.5 mm 5 m/s 739 mmHg 93%
01:00 +19°C° 0.5 mm 4 m/s 739 mmHg 94%
02:00 +19°C° 0.5 mm 4 m/s 739 mmHg 95%
03:00 +18°C° 0.8 mm 4 m/s 739 mmHg 95%
04:00 +17°C° 0.8 mm 5 m/s 740 mmHg 95%
05:00 +16°C° 0.8 mm 6 m/s 740 mmHg 96%
06:00 +16°C° 0.1 mm 6 m/s 740 mmHg 94%
07:00 +16°C° 0.1 mm 6 m/s 741 mmHg 93%
08:00 +15°C° 0.1 mm 6 m/s 741 mmHg 92%
09:00 +15°C° 0 mm 6 m/s 742 mmHg 90%
10:00 +16°C° 0 mm 6 m/s 742 mmHg 88%
11:00 +16°C° 0 mm 6 m/s 743 mmHg 86%
12:00 +16°C° 0.1 mm 6 m/s 743 mmHg 85%
13:00 +16°C° 0.1 mm 6 m/s 744 mmHg 85%
14:00 +15°C° 0.1 mm 6 m/s 744 mmHg 85%
15:00 +16°C° 0 mm 6 m/s 745 mmHg 82%
16:00 +17°C° 0 mm 6 m/s 745 mmHg 80%
17:00 +17°C° 0 mm 6 m/s 745 mmHg 77%
18:00 +16°C° 0 mm 5 m/s 745 mmHg 81%
19:00 +15°C° 0 mm 4 m/s 746 mmHg 84%
20:00 +14°C° 0 mm 3 m/s 746 mmHg 87%
21:00 +14°C° 0 mm 3 m/s 746 mmHg 89%
22:00 +13°C° 0 mm 3 m/s 746 mmHg 91%
23:00 +13°C° 0 mm 3 m/s 746 mmHg 93%

Poimâine, 9 Iulie, Joi

Timp Temperatura Precipitaţii Vânt Presiune Umiditate
00:00 +13°C° 0 mm 3 m/s 747 mmHg 94%
01:00 +12°C° 0 mm 3 m/s 747 mmHg 94%
02:00 +12°C° 0 mm 3 m/s 747 mmHg 94%
03:00 +12°C° 0 mm 3 m/s 747 mmHg 94%
04:00 +12°C° 0 mm 3 m/s 747 mmHg 93%
05:00 +12°C° 0 mm 3 m/s 748 mmHg 92%
06:00 +14°C° 0 mm 3 m/s 748 mmHg 87%
07:00 +16°C° 0 mm 3 m/s 748 mmHg 81%
08:00 +18°C° 0 mm 3 m/s 749 mmHg 76%
09:00 +19°C° 0 mm 4 m/s 749 mmHg 73%
10:00 +20°C° 0 mm 4 m/s 749 mmHg 69%
11:00 +21°C° 0 mm 5 m/s 749 mmHg 66%
12:00 +21°C° 0 mm 5 m/s 749 mmHg 66%
13:00 +21°C° 0 mm 5 m/s 749 mmHg 66%
14:00 +22°C° 0 mm 5 m/s 749 mmHg 65%
15:00 +21°C° 0 mm 5 m/s 749 mmHg 68%
16:00 +20°C° 0 mm 5 m/s 749 mmHg 71%
17:00 +20°C° 0 mm 5 m/s 749 mmHg 74%
18:00 +18°C° 0 mm 4 m/s 750 mmHg 80%
19:00 +17°C° 0 mm 3 m/s 750 mmHg 86%
20:00 +16°C° 0 mm 2 m/s 750 mmHg 91%
21:00 +15°C° 0 mm 2 m/s 750 mmHg 92%
22:00 +15°C° 0 mm 2 m/s 751 mmHg 93%
23:00 +14°C° 0 mm 2 m/s 751 mmHg 94%

10 Iulie, Vineri

Timp Temperatura Precipitaţii Vânt Presiune Umiditate
00:00 +14°C° 0 mm 1 m/s 751 mmHg 94%
01:00 +14°C° 0 mm 1 m/s 751 mmHg 94%
02:00 +13°C° 0 mm 1 m/s 751 mmHg 94%
03:00 +13°C° 0 mm 1 m/s 752 mmHg 94%
04:00 +14°C° 0 mm 1 m/s 752 mmHg 93%
05:00 +14°C° 0 mm 1 m/s 752 mmHg 93%
06:00 +16°C° 0 mm 1 m/s 752 mmHg 87%
07:00 +18°C° 0 mm 1 m/s 752 mmHg 81%
08:00 +20°C° 0 mm 1 m/s 753 mmHg 75%
09:00 +21°C° 0 mm 1 m/s 753 mmHg 70%
10:00 +22°C° 0 mm 1 m/s 753 mmHg 65%
11:00 +24°C° 0 mm 1 m/s 753 mmHg 60%
12:00 +24°C° 0 mm 1 m/s 753 mmHg 57%
13:00 +24°C° 0 mm 1 m/s 753 mmHg 55%
14:00 +25°C° 0 mm 1 m/s 753 mmHg 53%
15:00 +25°C° 0 mm 1 m/s 753 mmHg 54%
16:00 +23°C° 0 mm 0 m/s 753 mmHg 55%
17:00 +23°C° 0 mm 0 m/s 752 mmHg 56%
18:00 +23°C° 0 mm 1 m/s 753 mmHg 60%
19:00 +21°C° 0 mm 1 m/s 753 mmHg 65%
20:00 +20°C° 0 mm 1 m/s 753 mmHg 69%
21:00 +19°C° 0 mm 1 m/s 753 mmHg 71%
22:00 +18°C° 0 mm 1 m/s 753 mmHg 73%
23:00 +17°C° 0 mm 2 m/s 753 mmHg 76%

11 Iulie, Sâmbătă

Timp Temperatura Precipitaţii Vânt Presiune Umiditate
00:00 +16°C° 0 mm 2 m/s 753 mmHg 77%
01:00 +16°C° 0 mm 2 m/s 753 mmHg 79%
02:00 +16°C° 0 mm 2 m/s 752 mmHg 81%
03:00 +16°C° 0 mm 2 m/s 753 mmHg 82%
04:00 +16°C° 0 mm 2 m/s 753 mmHg 83%
05:00 +16°C° 0 mm 2 m/s 753 mmHg 84%
06:00 +18°C° 0 mm 3 m/s 753 mmHg 80%
07:00 +19°C° 0 mm 3 m/s 753 mmHg 77%
08:00 +21°C° 0 mm 3 m/s 753 mmHg 73%
09:00 +22°C° 0 mm 3 m/s 753 mmHg 69%
10:00 +24°C° 0 mm 3 m/s 753 mmHg 65%
11:00 +26°C° 0 mm 3 m/s 753 mmHg 60%
12:00 +26°C° 0 mm 3 m/s 752 mmHg 59%
13:00 +26°C° 0 mm 3 m/s 752 mmHg 57%
14:00 +27°C° 0 mm 2 m/s 752 mmHg 55%
15:00 +27°C° 0 mm 2 m/s 751 mmHg 57%
16:00 +27°C° 0 mm 2 m/s 751 mmHg 60%
17:00 +26°C° 0 mm 2 m/s 751 mmHg 62%
18:00 +25°C° 0 mm 2 m/s 750 mmHg 66%
19:00 +23°C° 0 mm 2 m/s 750 mmHg 69%
20:00 +20°C° 0 mm 2 m/s 750 mmHg 73%
21:00 +19°C° 0 mm 2 m/s 750 mmHg 74%
22:00 +19°C° 0 mm 2 m/s 750 mmHg 75%
23:00 +18°C° 0 mm 2 m/s 750 mmHg 77%

12 Iulie, Duminică

Timp Temperatura Precipitaţii Vânt Presiune Umiditate
00:00 +18°C° 0 mm 2 m/s 749 mmHg 77%
01:00 +17°C° 0 mm 2 m/s 749 mmHg 77%
02:00 +17°C° 0 mm 2 m/s 749 mmHg 77%
03:00 +17°C° 0 mm 2 m/s 748 mmHg 79%
04:00 +16°C° 0 mm 2 m/s 748 mmHg 81%
05:00 +16°C° 0 mm 2 m/s 748 mmHg 82%
06:00 +18°C° 0 mm 2 m/s 748 mmHg 79%
07:00 +20°C° 0 mm 2 m/s 748 mmHg 77%
08:00 +22°C° 0 mm 3 m/s 748 mmHg 74%
09:00 +24°C° 0 mm 3 m/s 747 mmHg 69%
10:00 +25°C° 0 mm 3 m/s 747 mmHg 64%
11:00 +26°C° 0 mm 2 m/s 747 mmHg 59%
12:00 +27°C° 0.1 mm 2 m/s 747 mmHg 59%
13:00 +27°C° 0.1 mm 2 m/s 746 mmHg 58%
14:00 +27°C° 0.1 mm 2 m/s 746 mmHg 58%
15:00 +27°C° 0.1 mm 2 m/s 746 mmHg 60%
16:00 +27°C° 0.1 mm 2 m/s 745 mmHg 62%
17:00 +27°C° 0.1 mm 2 m/s 745 mmHg 65%
18:00 +25°C° 0.2 mm 2 m/s 745 mmHg 70%
19:00 +23°C° 0.2 mm 2 m/s 745 mmHg 76%
20:00 +20°C° 0.2 mm 2 m/s 745 mmHg 82%
21:00 +18°C° 0.1 mm 3 m/s 744 mmHg 86%
22:00 +16°C° 0.1 mm 5 m/s 744 mmHg 90%
23:00 +14°C° 0.1 mm 6 m/s 744 mmHg 95%
Arată mai mult